Location: Sungai Liu
(2.3667°N, 113.8667°E)
Time: 07:37:26
(UTC+00:00)

ARIANE 5 R/B - Visible Passes

Search period start: 06 October 2022 00:00
Search period end: 16 October 2022 00:00
Orbit: 431 x 35406 km, 7.3° (Epoch: 05 October)

Date Brightness Start Highest point End Pass type
(mag) Time Alt. Az. Time Alt. Az. Time Alt. Az.
06 Oct 6.7 17:46:33 82° NNW 17:52:45 83° N 03:07:42 10° ESE visible
07 Oct 5.6 14:43:21 28° E 14:43:21 28° E 23:47:37 10° E visible
08 Oct 1.5 10:48:40 10° WSW 10:51:22 66° S 10:56:14 14° E visible
09 Oct 5.7 19:05:22 55° WNW 20:27:20 76° WNW 04:29:20 10° ESE visible
10 Oct 7.6 16:02:09 55° ENE 16:02:09 55° ENE 01:14:07 10° ESE visible
11 Oct 2.7 12:09:24 10° W 12:13:21 84° N 12:14:07 72° ENE visible
11 Oct 10.1 16:14:23 10° E 20:07:26 33° E 21:40:10 10° E visible
12 Oct 4.8 20:24:09 29° W 21:50:43 51° W 05:50:14 10° ESE visible
13 Oct 6.9 17:20:55 82° NNE 17:20:55 82° NNE 02:37:26 10° ESE visible
14 Oct 4.7 13:30:00 10° W 14:17:41 23° E 23:16:11 10° E visible
